Le Mars, IA

10:05 AM CST on December 13, 2019 (GMT -0600)
Le Mars Municipal

Weather History for KLRJ - August, 2019

Change the Weather History Date:

Sunday, August 11, 2019

  Actual Average Record
Temperature  
Mean Temperature 75 °F -  
Max Temperature 82 °F 84 °F 98 °F (1976)
Min Temperature 68 °F 56 °F 44 °F (2012)
Cooling Degree Days 10    
Growing Degree Days 25 (Base 50)    
Moisture  
Dew Point 71 °F    
Average Humidity 93    
Maximum Humidity 100    
Minimum Humidity 74    
Precipitation  
Precipitation 0.00 in - - ()
Sea Level Pressure  
Sea Level Pressure 29.96 in    
Wind  
Wind Speed 4 mph (NE)    
Max Wind Speed 13 mph    
Max Gust Speed 16 mph    
Visibility 8 miles    
Events Fog    
Averages and records for this station are not official NWS values.
T = Trace of Precipitation, MM = Missing Value Source: NWS Daily Summary

Daily Weather History Graph

Daily Weather History Graph

Search for Another Location

Airport or City:

Astronomy

Aug. 11, 2019 Rise Set
Actual Time 6:26 AM CDT 8:32 PM CDT
Civil Twilight 5:55 AM CDT 9:03 PM CDT
Nautical Twilight 5:17 AM CDT 9:41 PM CDT
Astronomical Twilight 4:35 AM CDT 10:22 PM CDT
Moon 6:16 PM CDT (8/11) 2:44 AM CDT (8/11)
Length of Visible Light 15h 07m
Length of Day
14h 06m
Waxing Gibbous, 87% of the Moon is Illuminated
Aug 11
Waxing Gibbous
Aug 15
Full
Aug 23
Last Quarter
Aug 30
New
Sep 5
First Quarter

Hourly Weather History & Observations

Time (CDT) Temp. Heat Index Dew Point Humidity Pressure Visibility Wind Dir Wind Speed Gust Speed Precip Events Conditions
12:15 AM 71.6 °F - 71.6 °F 100% 29.93 in 6.0 mi Calm Calm - N/A   Clear
12:35 AM 71.6 °F - 71.6 °F 100% 29.93 in 6.0 mi Calm Calm - N/A   Clear
12:55 AM 69.8 °F - 69.8 °F 100% 29.93 in 5.0 mi Calm Calm - N/A   Clear
1:15 AM 69.8 °F - 69.8 °F 100% 29.93 in 6.0 mi Calm Calm - N/A   Clear
1:35 AM 69.8 °F - 69.8 °F 100% 29.93 in 5.0 mi NNE 3.5 mph - N/A   Clear
1:55 AM 69.8 °F - 69.8 °F 100% 29.94 in 3.0 mi Calm Calm - N/A   Clear
2:15 AM 69.8 °F - 69.8 °F 100% 29.94 in 2.0 mi Calm Calm - N/A   Clear
2:35 AM 69.8 °F - 68.0 °F 94% 29.94 in 2.5 mi North 4.6 mph - N/A   Clear
2:55 AM 69.8 °F - 69.8 °F 100% 29.94 in 3.0 mi Calm Calm - N/A   Clear
3:15 AM 68.0 °F - 68.0 °F 100% 29.95 in 4.0 mi Calm Calm - N/A   Mostly Cloudy
3:35 AM 68.0 °F - 68.0 °F 100% 29.94 in 4.0 mi Calm Calm - N/A   Overcast
3:55 AM 68.0 °F - 68.0 °F 100% 29.95 in 7.0 mi Calm Calm - N/A   Overcast
4:15 AM 69.8 °F - 68.0 °F 94% 29.95 in 4.0 mi Calm Calm - N/A   Overcast
4:35 AM 69.8 °F - 69.8 °F 100% 29.95 in 5.0 mi Calm Calm - N/A   Overcast
4:55 AM 69.8 °F - 69.8 °F 100% 29.95 in 4.0 mi Calm Calm - N/A   Scattered Clouds
5:15 AM 69.8 °F - 69.8 °F 100% 29.96 in 4.0 mi Calm Calm - N/A   Scattered Clouds
5:35 AM 69.8 °F - 69.8 °F 100% 29.95 in 3.0 mi North 5.8 mph - N/A   Overcast
5:55 AM 69.8 °F - 69.8 °F 100% 29.94 in 0.2 mi NNE 8.1 mph - N/A Fog Fog
6:15 AM 69.8 °F - 69.8 °F 100% 29.93 in 0.2 mi NNE 9.2 mph - N/A Fog Fog
6:35 AM 69.8 °F - 69.8 °F 100% 29.93 in 0.8 mi NE 8.1 mph - N/A   Overcast
6:55 AM 69.8 °F - 69.8 °F 100% 29.95 in 1.2 mi NE 9.2 mph - N/A   Overcast
7:15 AM 69.8 °F - 69.8 °F 100% 29.97 in 2.5 mi ENE 4.6 mph 12.7 mph N/A   Overcast
7:35 AM 69.8 °F - 69.8 °F 100% 29.97 in 7.0 mi NNE 9.2 mph - N/A   Overcast
7:55 AM 71.6 °F - 71.6 °F 100% 29.96 in 8.0 mi NNE 8.1 mph - N/A   Overcast
8:15 AM 71.6 °F - 69.8 °F 94% 29.96 in 9.0 mi NE 9.2 mph - N/A   Overcast
8:35 AM 69.8 °F - 69.8 °F 100% 29.98 in 9.0 mi NNE 9.2 mph - N/A   Overcast
8:55 AM 69.8 °F - 69.8 °F 100% 29.99 in 9.0 mi NE 5.8 mph - N/A   Overcast
9:15 AM 71.6 °F - 69.8 °F 94% 30.00 in 9.0 mi ENE 6.9 mph - N/A   Overcast
9:35 AM 71.6 °F - 71.6 °F 100% 30.01 in 9.0 mi ENE 6.9 mph - N/A   Overcast
9:55 AM 71.6 °F - 71.6 °F 100% 30.02 in 10.0 mi ENE 5.8 mph - N/A   Overcast
10:15 AM 71.6 °F - 71.6 °F 100% 30.02 in 10.0 mi Calm Calm - N/A   Overcast
10:35 AM 71.6 °F - 71.6 °F 100% 30.02 in 10.0 mi NE 5.8 mph - N/A   Overcast
10:55 AM 71.6 °F - 71.6 °F 100% 30.02 in 10.0 mi NNE 8.1 mph - N/A   Overcast
11:15 AM 71.6 °F - 71.6 °F 100% 30.03 in 9.0 mi NNE 8.1 mph - N/A   Overcast
11:35 AM 71.6 °F - 71.6 °F 100% 30.03 in 8.0 mi ENE 10.4 mph - N/A   Overcast
11:55 AM 71.6 °F - 71.6 °F 100% 30.02 in 4.0 mi NNE 9.2 mph - N/A   Overcast
12:15 PM 71.6 °F - 71.6 °F 100% 30.02 in 9.0 mi NNE 6.9 mph - N/A   Overcast
12:35 PM 71.6 °F - 71.6 °F 100% 30.02 in 9.0 mi NE 10.4 mph - N/A   Overcast
12:55 PM 71.6 °F - 71.6 °F 100% 30.01 in 8.0 mi ENE 6.9 mph - N/A   Overcast
1:15 PM 73.4 °F - 71.6 °F 94% 30.01 in 10.0 mi NE 8.1 mph - N/A   Mostly Cloudy
1:35 PM 75.2 °F - 71.6 °F 89% 30.00 in 10.0 mi ENE 6.9 mph - N/A   Overcast
1:55 PM 75.2 °F - 71.6 °F 89% 29.99 in 10.0 mi East 6.9 mph - N/A   Overcast
2:15 PM 75.2 °F - 71.6 °F 89% 29.99 in 10.0 mi ENE 6.9 mph - N/A   Overcast
2:35 PM 77.0 °F - 71.6 °F 83% 29.99 in 10.0 mi NE 8.1 mph - N/A   Overcast
2:55 PM 78.8 °F - 71.6 °F 78% 29.99 in 10.0 mi North 5.8 mph - N/A   Overcast
3:15 PM 78.8 °F - 71.6 °F 78% 29.98 in 10.0 mi NNW 4.6 mph - N/A   Mostly Cloudy
3:35 PM 80.6 °F 84.6 °F 71.6 °F 74% 29.98 in 10.0 mi North 6.9 mph - N/A   Mostly Cloudy
3:55 PM 80.6 °F 84.6 °F 71.6 °F 74% 29.98 in 10.0 mi Variable 5.8 mph - N/A   Overcast
4:15 PM 80.6 °F 84.6 °F 71.6 °F 74% 29.97 in 10.0 mi NNE 6.9 mph - N/A   Mostly Cloudy
4:35 PM 80.6 °F 84.6 °F 71.6 °F 74% 29.97 in 10.0 mi North 6.9 mph - N/A   Partly Cloudy
4:55 PM 82.4 °F 88.2 °F 73.4 °F 74% 29.96 in 10.0 mi North 8.1 mph - N/A   Mostly Cloudy
5:15 PM 82.4 °F 88.2 °F 73.4 °F 74% 29.96 in 10.0 mi Variable 6.9 mph - N/A   Mostly Cloudy
5:35 PM 80.6 °F 85.4 °F 73.4 °F 79% 29.95 in 10.0 mi NNE 8.1 mph - N/A   Overcast
5:55 PM 80.6 °F 84.6 °F 71.6 °F 74% 29.95 in 10.0 mi North 9.2 mph - N/A   Mostly Cloudy
6:15 PM 82.4 °F 88.2 °F 73.4 °F 74% 29.94 in 10.0 mi NNE 9.2 mph - N/A   Mostly Cloudy
6:35 PM 78.8 °F - 73.4 °F 83% 29.92 in 10.0 mi NNE 10.4 mph - N/A   Scattered Clouds
6:55 PM 78.8 °F - 73.4 °F 83% 29.92 in 10.0 mi NE 12.7 mph - N/A   Scattered Clouds
7:15 PM 78.8 °F - 73.4 °F 83% 29.91 in 10.0 mi NE 12.7 mph - N/A   Scattered Clouds
7:35 PM 78.8 °F - 71.6 °F 78% 29.91 in 10.0 mi ENE 10.4 mph - N/A   Partly Cloudy
7:55 PM 77.0 °F - 71.6 °F 83% 29.92 in 10.0 mi ENE 8.1 mph - N/A   Clear
8:15 PM 77.0 °F - 71.6 °F 83% 29.92 in 10.0 mi ENE 8.1 mph - N/A   Clear
8:35 PM 77.0 °F - 71.6 °F 83% 29.92 in 10.0 mi ENE 8.1 mph - N/A   Clear
8:55 PM 75.2 °F - 73.4 °F 94% 29.92 in 10.0 mi East 5.8 mph 12.7 mph N/A   Clear
9:15 PM 75.2 °F - 73.4 °F 94% 29.93 in 10.0 mi ENE 6.9 mph - N/A   Clear
9:35 PM 75.2 °F - 73.4 °F 94% 29.93 in 10.0 mi ENE 8.1 mph - N/A   Clear
9:55 PM 73.4 °F - 71.6 °F 94% 29.93 in 10.0 mi East 8.1 mph - N/A   Partly Cloudy
10:15 PM 73.4 °F - 71.6 °F 94% 29.93 in 10.0 mi East 9.2 mph 16.1 mph N/A   Mostly Cloudy
10:35 PM 73.4 °F - 71.6 °F 94% 29.93 in 10.0 mi East 9.2 mph - N/A   Overcast
10:55 PM 73.4 °F - 71.6 °F 94% 29.93 in 10.0 mi East 8.1 mph - N/A   Overcast
11:15 PM 73.4 °F - 71.6 °F 94% 29.92 in 10.0 mi East 8.1 mph - N/A   Overcast
11:35 PM 73.4 °F - 73.4 °F 100% 29.94 in 10.0 mi East 8.1 mph - N/A   Mostly Cloudy
11:55 PM 73.4 °F - 73.4 °F 100% 29.94 in 10.0 mi East 8.1 mph - N/A   Overcast